Simultaneous Nadir Overpasses (SNOs) Predictions

Prediction of SNOs between METOP-B and TERRA Satellite Orbit:

Table of predicted SNOs for the next 14.0 days since TLE Epoch: 7/21/2023
Index Date (METOP-B) Time (METOP-B) Lat,Lon (METOP-B) SZA (METOP-B ) Date (TERRA) Time (TERRA) Lat,Lon (TERRA) SZA (TERRA ) Distance(km) Time Diff (sec)
1 07/22/2023 16:25:26 -80.79, 145.39 118.16 07/22/2023 16:25:31 -80.78, 145.30 118.17 1.96 5
2 07/22/2023 17:16:02 80.88, -45.68 62.07 07/22/2023 17:14:48 80.91, -45.57 62.07 3.59 74
3 07/25/2023 07:46:22 80.77, 94.75 62.33 07/25/2023 07:46:51 80.77, 94.79 62.35 0.78 29
4 07/25/2023 08:37:00 -80.83, -96.87 117.52 07/25/2023 08:36:12 -80.82, -96.94 117.55 1.32 48
5 07/27/2023 23:07:18 -80.75, 44.24 117.12 07/27/2023 23:08:12 -80.76, 44.27 117.10 0.89 54
6 07/27/2023 23:57:56 80.80,-147.59 63.00 07/27/2023 23:57:32 80.80,-147.63 62.98 0.92 24
7 07/30/2023 15:18:53 -80.76, 161.50 116.47 07/30/2023 15:18:53 -80.77, 161.67 116.46 3.07 0
8 08/02/2023 06:39:46 80.76, 111.32 64.20 08/02/2023 06:40:10 80.76, 111.29 64.20 0.53 24



Historial Predications of SNOs between METOP-B and TERRA
